Weather History for 60230 - November, 2012

Change the Weather History Date:

Monday, November 19, 2012

  Actual Average Record
Temperature  
Mean Temperature 57 °F -  
Max Temperature 66 °F 66 °F - ()
Min Temperature 48 °F 45 °F - ()
Degree Days  
Heating Degree Days 8    
Growing Degree Days 7 (Base 50)    
Moisture  
Dew Point 52 °F    
Average Humidity 83    
Maximum Humidity 100    
Minimum Humidity 51    
Precipitation  
Precipitation 0.00 in 0.05 in - ()
Sea Level Pressure  
Sea Level Pressure 30.06 in    
Wind  
Wind Speed 4 mph ()    
Max Wind Speed 8 mph    
Max Gust Speed -    
Visibility 5.9 miles    
Events      
T = Trace of Precipitation, MM = Missing Value Source: Averaged Metar Reports

Daily Weather History Graph

Daily Weather History Graph

Search for Another Location

Airport or City:

Trip Planner

Search our weather history database for the weather conditions in past years. The results will help you decide how hot, cold, wet, or windy it might be!

Date:

Astronomy

Nov. 19, 2012 Rise Set
Actual Time 7:03 AM WET 5:31 PM WET
Civil Twilight 6:37 AM WET 5:57 PM WET
Nautical Twilight 6:08 AM WET 6:26 PM WET
Astronomical Twilight 5:39 AM WET 6:55 PM WET
Moon 12:06 PM WET (11/19) 11:34 PM WET (11/19)
Length of Visible Light 11h 19m
Length of Day
10h 27m
Waxing Crescent, 38% of the Moon is Illuminated
Nov 19
Waxing Crescent
Nov 20
First Quarter
Nov 28
Full
Dec 6
Last Quarter
Dec 13
New

Hourly Weather History & Observations

Time (WET) Temp. Dew Point Humidity Pressure Visibility Wind Dir Wind Speed Gust Speed Precip Events Conditions
12:00 AM 54 °F 53 °F 93% 30.09 in 5 mi East 3.5 mph - -   Partly Cloudy
12:00 AM 53.6 °F 51.8 °F 94% 30.09 in 6.2 mi East 2.3 mph - N/A   Scattered Clouds
2:30 AM 55.4 °F 53.6 °F 94% 30.06 in 6.2 mi East 4.6 mph - N/A   Scattered Clouds
3:00 AM 53 °F 52 °F 94% 30.07 in 6 mi East 6.9 mph - -   Partly Cloudy
3:00 AM 53.6 °F 51.8 °F 94% 30.06 in 6.2 mi East 6.9 mph - N/A   Scattered Clouds
3:30 AM 51.8 °F 51.8 °F 100% 30.06 in 6.2 mi ESE 4.6 mph - N/A   Scattered Clouds
4:00 AM 51.8 °F 51.8 °F 100% 30.06 in 6.2 mi East 6.9 mph - N/A   Scattered Clouds
4:30 AM 51.8 °F 51.8 °F 100% 30.06 in 6.2 mi East 3.5 mph - N/A   Scattered Clouds
5:00 AM 50.0 °F 50.0 °F 100% 30.06 in 6.2 mi East 4.6 mph - N/A   Scattered Clouds
5:30 AM 50.0 °F 50.0 °F 100% 30.06 in 6.2 mi East 3.5 mph - N/A   Scattered Clouds
6:00 AM 49 °F 49 °F 100% 30.08 in 6 mi East 4.6 mph - -   Scattered Clouds
6:00 AM 50.0 °F 50.0 °F 100% 30.06 in 6.2 mi East 4.6 mph - N/A   Partly Cloudy
6:30 AM 50.0 °F 50.0 °F 100% 30.06 in 4.3 mi East 3.5 mph - N/A   Partly Cloudy
7:00 AM 48.2 °F 48.2 °F 100% 30.06 in 6.2 mi East 4.6 mph - N/A   Partly Cloudy
7:30 AM 48.2 °F 48.2 °F 100% 30.09 in 6.2 mi East 4.6 mph - N/A   Partly Cloudy
8:00 AM 50.0 °F 50.0 °F 100% 30.06 in 6.2 mi East 4.6 mph - N/A   Partly Cloudy
8:30 AM 53.6 °F 51.8 °F 94% 30.09 in 6.2 mi East 2.3 mph - N/A   Partly Cloudy
9:00 AM 55.4 °F 51.8 °F 88% 30.09 in 5.0 mi ESE 2.3 mph - N/A   Partly Cloudy
9:30 AM 57.2 °F 53.6 °F 88% 30.09 in 6.2 mi ENE 6.9 mph - N/A   Partly Cloudy
10:00 AM 57.2 °F 53.6 °F 88% 30.12 in 6.2 mi East 5.8 mph - N/A   Unknown
10:30 AM 59.0 °F 53.6 °F 82% 30.09 in 6.2 mi ENE 4.6 mph - N/A   Partly Cloudy
11:00 AM 59.0 °F 53.6 °F 82% 30.09 in 6.2 mi NE 4.6 mph - N/A   Partly Cloudy
11:30 AM 60.8 °F 53.6 °F 77% 30.09 in 6.2 mi NE 3.5 mph - N/A   Partly Cloudy
12:00 PM 61 °F 54 °F 70% 30.06 in 6 mi NNE 3.5 mph - -   Scattered Clouds
12:00 PM 60.8 °F 53.6 °F 77% 30.09 in 6.2 mi Variable 3.5 mph - N/A   Partly Cloudy
12:30 PM 62.6 °F 51.8 °F 68% 30.06 in 6.2 mi NE 6.9 mph - N/A   Partly Cloudy
1:00 PM 62.6 °F 53.6 °F 72% 30.06 in 6.2 mi ENE 6.9 mph - N/A   Partly Cloudy
1:30 PM 64.4 °F 53.6 °F 68% 30.04 in 6.2 mi North 5.8 mph - N/A   Scattered Clouds
2:00 PM 64.4 °F 53.6 °F 68% 30.04 in 6.2 mi North 5.8 mph - N/A   Scattered Clouds
2:30 PM 64.4 °F 53.6 °F 68% 30.04 in 6.2 mi NE 4.6 mph - N/A   Scattered Clouds
3:00 PM 66 °F 52 °F 51% 30.01 in 6 mi ENE 8.1 mph - -   Partly Cloudy
3:00 PM 66.2 °F 53.6 °F 64% 30.04 in 6.2 mi ENE 8.1 mph - N/A   Scattered Clouds
3:30 PM 66.2 °F 51.8 °F 60% 30.04 in 6.2 mi ENE 8.1 mph - N/A   Scattered Clouds
4:00 PM 66.2 °F 50.0 °F 56% 30.04 in 6.2 mi ENE 6.9 mph - N/A   Scattered Clouds
4:30 PM 66.2 °F 51.8 °F 60% 30.04 in 6.2 mi ENE 6.9 mph - N/A   Scattered Clouds
5:00 PM 64.4 °F 51.8 °F 64% 30.04 in 6.2 mi ENE 6.9 mph - N/A   Scattered Clouds
5:30 PM 62.6 °F 51.8 °F 68% 30.04 in 6.2 mi NE 5.8 mph - N/A   Scattered Clouds
6:00 PM 61 °F 51 °F 62% 30.03 in 6 mi NNE 5.8 mph - -   Scattered Clouds
6:00 PM 60.8 °F 51.8 °F 72% 30.06 in 6.2 mi NNE 5.8 mph - N/A   Partly Cloudy
6:30 PM 60.8 °F 51.8 °F 72% 30.06 in 6.2 mi NE 4.6 mph - N/A   Partly Cloudy
7:00 PM 59.0 °F 51.8 °F 77% 30.06 in 6.2 mi NE 3.5 mph - N/A   Partly Cloudy
7:30 PM 59.0 °F 51.8 °F 77% 30.06 in 5.0 mi Calm Calm - N/A   Partly Cloudy
8:00 PM 59.0 °F 51.8 °F 77% 30.06 in 6.2 mi NNE 5.8 mph - N/A   Partly Cloudy
8:30 PM 57.2 °F 53.6 °F 88% 30.06 in 6.2 mi NE 2.3 mph - N/A   Partly Cloudy
9:00 PM 57 °F 53 °F 82% 30.07 in 6 mi East 3.5 mph - -   Scattered Clouds
9:00 PM 57.2 °F 53.6 °F 88% 30.06 in 6.2 mi ESE 2.3 mph - N/A   Partly Cloudy
9:30 PM 55.4 °F 51.8 °F 88% 30.06 in 5.6 mi East 4.6 mph - N/A   Partly Cloudy
10:00 PM 53.6 °F 51.8 °F 94% 30.06 in 5.0 mi ESE 3.5 mph - N/A   Unknown
10:30 PM 55.4 °F 51.8 °F 88% 30.09 in 5.0 mi East 3.5 mph - N/A   Unknown
11:00 PM 53.6 °F 51.8 °F 94% 30.09 in 5.0 mi East 4.6 mph - N/A   Unknown
11:30 PM 53.6 °F 51.8 °F 94% 30.06 in 4.3 mi East 5.8 mph - N/A   Unknown